Regional Weather Roundup
Issued by NWS Midland/Odessa, TX

Skip options and go directly to product.
Home | Oldest Version | Next Version | Current Version | All | Text Only | Save Text | Print | Product List | Glossary On

Skip product version selection by date and time.   
502
ASUS44 KMAF 260901
RWRMAF
MIDLAND AREA WEATHER ROUNDUP
NATIONAL WEATHER SERVICE MIDLAND TX
400 AM CDT TUE JUL 26 2016

...IN SOUTHWEST TEXAS AND SOUTHEAST NEW MEXICO...

CITY           SKY/WX    TMP DP  RH WIND       PRES   REMARKS
ALPINE         CLEAR     71  53  54 CALM      30.16S
ANDREWS        FAIR      78  61  55 N16G23    30.09R
ARTESIA        DRIZZLE   72  64  78 NW14      30.16S
BIG SPRING     CLOUDY    80  65  60 CALM      30.05S
CARLSBAD       CLOUDY    75  61  61 NW16G30   30.10F
DRYDEN           N/A     82  65  56 E7        29.96R
FORT STOCKTON  CLEAR     79  59  50 SE8       30.00S
GUAD PASS      CLEAR     74  56  53 NE25      30.20F
HOBBS          MOCLDY    72  61  68 N12       30.13S
MARFA          CLEAR     66  54  65 CALM      30.15S
MIDLAND AIRPK  CLOUDY    82  62  51 E5        30.04R
MIDLAND INTL   CLOUDY    82  62  50 E8        30.03R
ODESSA         CLOUDY    82  60  47 E8        30.05R
PECOS          CLEAR     80  58  48 NE6       29.98R
PRESIDIO       FAIR      85  56  37 NE6       29.97S
SEMINOLE       CLOUDY    74  60  62 NE9       30.12R
SNYDER           N/A     77  66  68 CALM      30.04S
WINK           CLOUDY    82  58  43 NE6       30.00R
$$
...OTHER STATIONS IN TEXAS...

CITY           SKY/WX    TMP DP  RH WIND       PRES   REMARKS
ABILENE        CLEAR     75  67  76 CALM      29.99F
AMARILLO       CLEAR     69  59  70 W5        30.13F
AUSTIN         MOCLDY    77  75  93 E3        29.93S
BROWNSVILLE    PTCLDY    82  77  84 S13       29.86S
CORPUS CHRISTI MOCLDY    80  78  94 CALM      29.87R
DALLAS FTW     MOCLDY    79  71  76 CALM      29.95S
DEL RIO        PTCLDY    80  70  71 E10       29.90R
EL PASO        MOCLDY    83  58  42 NE20      30.07R
HOUSTON INT    MOCLDY    78  76  93 CALM      29.92S
LUBBOCK        MOCLDY    73  60  63 N5        30.11S
SAN ANGELO     CLEAR     73  66  78 E5        29.98S
SAN ANTONIO    CLOUDY    74  71  91 N5        29.94R
WACO           CLOUDY    74  71  91 CALM      29.94S
WICHITA FALLS  NOT AVBL
$$
...OTHER LOCATIONS IN NEW MEXICO...

CITY           SKY/WX    TMP DP  RH WIND       PRES   REMARKS
ALAMAGORDO     CLOUDY    81  55  41 E9        30.13S
ALBUQUERQUE    CLOUDY    72  57  59 E16       30.25F
CANNON AFB     CLOUDY    67  63  87 N6        30.18R
CLOVIS         CLOUDY    68  57  68 W9        30.17S
HOLLOMAN AFB   CLOUDY    76  57  51 N23G30    30.12S
ROSWELL        PTCLDY    72  61  68 N13       30.16F
RUIDOSO          N/A     63  54  72 W7        30.41R
SANTA FE       CLEAR     63  57  81 S10       30.33F
TRUTH OR CONSE CLOUDY    73  60  63 N10       30.17F
TUCUMCARI      MOCLDY    69  64  84 N5        30.18R
$$

USA.gov is the U.S. government's official web portal to all federal, state and local government web resources and services.